Date String (YYYY-MM-DD hh:mm:ss) UTC,Instrument flags,Ambient pressure (hPa),Sample flow (lpm),Bypass flow (lpm),Sample temperature (°C),Ambient temperature (°C),ASC tube jacket temperature (°C),LED temperature (°C),Box temperature (°C),Sample RH (%),Span deviation,Mass concentration (μg/m³),Mass concentration (μg/m³),Mass concentration (μg/m³)
DateTimeUTC,F1_M11,P_M11,Q1_M11,Q2_M11,T1_M11,T2_M11,T3_M11,T4_M11,T5_M11,U1_M11,ZSPAN_M11,X2_M11,X0_M11,X1_M11
2022-01-05 17:00:00,,0817.1,5.00,0.00,22.4,21.7,00.0,31.4,24.1,10.1,0000.0,0003.90,0005.55,0003.66
2022-01-05 17:01:00,,0817.0,5.00,0.00,22.4,21.7,00.0,31.4,24.1,10.2,0000.0,0003.93,0005.63,0003.68
2022-01-05 17:02:00,,0817.0,5.00,0.00,22.4,21.7,00.0,31.4,24.1,10.2,0000.0,0003.99,0005.94,0003.68
2022-01-05 17:03:00,,0817.0,5.00,0.00,22.4,21.7,00.0,31.4,24.1,10.1,0000.0,0004.00,0006.23,0003.69
2022-01-05 17:04:00,,0817.0,5.00,0.00,22.4,21.7,00.0,31.4,24.1,10.1,0000.0,0004.00,0006.44,0003.69
2022-01-05 17:05:00,,0817.1,5.00,0.00,22.4,21.7,00.0,31.4,24.1,10.1,0000.0,0003.97,0006.30,0003.69
2022-01-05 17:06:00,,0817.1,5.00,0.00,22.4,21.7,00.0,31.4,24.2,10.1,0000.0,0003.95,0006.30,0003.68
2022-01-05 17:07:00,,0817.0,5.01,0.00,22.4,21.7,00.0,31.4,24.2,10.1,0000.0,0003.94,0006.55,0003.66
2022-01-05 17:08:00,,0816.9,4.99,0.00,22.4,21.7,00.0,31.4,24.2,10.1,0000.0,0003.92,0006.67,0003.63
2022-01-05 17:09:00,,0816.9,5.01,0.00,22.5,21.7,00.0,31.4,24.2,10.3,0000.0,0003.91,0006.70,0003.62
2022-01-05 17:10:00,,0816.9,4.99,0.00,22.5,21.7,00.0,31.4,24.2,10.2,0000.0,0003.93,0006.80,0003.62
2022-01-05 17:11:00,,0817.0,5.00,0.00,22.5,21.7,00.0,31.4,24.2,10.3,0000.0,0003.94,0006.83,0003.62
2022-01-05 17:12:00,,0816.9,4.99,0.00,22.5,21.7,00.0,31.4,24.2,10.4,0000.0,0003.90,0006.68,0003.61
2022-01-05 17:13:00,,0816.8,4.99,0.00,22.5,21.8,00.0,31.4,24.2,10.3,0000.0,0003.86,0006.46,0003.60
2022-01-05 17:14:00,,0816.8,5.01,0.00,22.5,21.8,00.0,31.4,24.2,10.4,0000.0,0003.85,0006.23,0003.58
2022-01-05 17:15:00,,0816.8,5.00,0.00,22.5,21.8,00.0,31.4,24.2,10.4,0000.0,0003.85,0006.02,0003.57
2022-01-05 17:16:00,,0816.8,4.99,0.00,22.5,21.8,00.0,31.4,24.3,10.3,0000.0,0003.85,0006.03,0003.58
2022-01-05 17:17:00,,0817.0,5.01,0.00,22.5,21.8,00.0,31.4,24.3,10.2,0000.0,0003.84,0005.91,0003.58
2022-01-05 17:18:00,,0816.9,4.99,0.00,22.5,21.8,00.0,31.4,24.3,10.2,0000.0,0003.83,0005.55,0003.59
2022-01-05 17:19:00,,0816.6,5.01,0.00,22.6,22.4,00.0,31.4,24.4,10.2,0000.0,0003.83,0006.19,0003.60
2022-01-05 17:20:00,,0816.7,4.99,0.00,22.7,23.3,00.0,31.5,24.7,10.1,0000.0,0003.82,0006.48,0003.60
2022-01-05 17:21:00,,0816.9,5.01,0.00,22.8,23.4,00.0,31.5,24.8,10.0,0000.0,0003.83,0006.51,0003.60
2022-01-05 17:22:00,,0817.0,5.01,0.00,22.9,23.2,00.0,31.6,24.8,10.1,0000.0,0003.82,0006.50,0003.60
2022-01-05 17:23:00,,0816.9,4.99,0.00,22.9,23.0,00.0,31.6,24.7,10.1,0000.0,0003.84,0006.56,0003.60
2022-01-05 17:24:00,,0816.7,5.00,0.00,22.9,22.9,00.0,31.6,24.7,10.0,0000.0,0003.83,0006.48,0003.61
2022-01-05 17:25:00,,0816.6,5.00,0.00,22.9,22.7,00.0,31.6,24.7,09.9,0000.0,0003.84,0006.53,0003.62
2022-01-05 17:26:00,,0817.0,5.00,0.00,22.9,22.6,00.0,31.6,24.6,09.9,0000.0,0003.85,0006.82,0003.62
2022-01-05 17:27:00,,0816.9,5.00,0.00,22.8,22.5,00.0,31.6,24.6,09.9,0000.0,0003.86,0006.99,0003.62
2022-01-05 17:28:00,,0816.8,4.99,0.00,22.8,22.4,00.0,31.7,24.6,10.0,0000.0,0003.85,0006.97,0003.62
2022-01-05 17:29:00,,0816.7,4.99,0.00,22.8,22.3,00.0,31.7,24.6,10.0,0000.0,0003.84,0006.96,0003.61
2022-01-05 17:30:00,,0816.9,5.01,0.00,22.8,22.3,00.0,31.7,24.6,09.9,0000.0,0003.82,0006.23,0003.60
2022-01-05 17:31:00,,0816.8,5.02,0.00,22.8,22.2,00.0,31.7,24.5,09.9,0000.0,0003.81,0005.74,0003.59
2022-01-05 17:32:00,,0816.5,5.00,0.00,22.8,22.2,00.0,31.7,24.5,10.0,0000.0,0003.80,0005.86,0003.58
2022-01-05 17:33:00,,0816.5,4.99,0.00,22.8,22.1,00.0,31.7,24.4,09.9,0000.0,0003.79,0006.10,0003.57
2022-01-05 17:34:00,,0816.5,5.01,0.00,22.7,22.0,00.0,31.7,24.4,10.0,0000.0,0003.78,0006.23,0003.56
2022-01-05 17:35:00,,0816.4,4.99,0.00,22.7,22.0,00.0,31.7,24.4,10.0,0000.0,0003.78,0006.29,0003.54
2022-01-05 17:36:00,,0816.4,5.00,0.00,22.7,22.0,00.0,31.7,24.4,10.0,0000.0,0003.77,0006.28,0003.53
2022-01-05 17:37:00,,0816.4,5.00,0.00,22.7,22.0,00.0,31.7,24.4,10.1,0000.0,0003.75,0006.00,0003.52
2022-01-05 17:38:00,,0816.5,5.01,0.00,22.7,22.0,00.0,31.7,24.4,10.0,0000.0,0003.74,0005.74,0003.51
2022-01-05 17:39:00,,0816.4,5.01,0.00,22.7,22.0,00.0,31.7,24.4,09.9,0000.0,0003.74,0006.17,0003.51
2022-01-05 17:40:00,,0816.3,5.00,0.00,22.7,22.0,00.0,31.7,24.4,10.0,0000.0,0003.76,0007.14,0003.52
2022-01-05 17:41:00,,0816.3,5.00,0.00,22.7,22.0,00.0,31.7,24.4,10.0,0000.0,0003.77,0007.25,0003.51
2022-01-05 17:42:00,,0816.3,5.00,0.00,22.7,22.0,00.0,31.7,24.4,10.0,0000.0,0003.76,0007.38,0003.50
2022-01-05 17:43:00,,0816.3,4.99,0.00,22.7,21.9,00.0,31.6,24.4,10.1,0000.0,0003.75,0007.35,0003.51
2022-01-05 17:44:00,,0816.1,5.00,0.00,22.7,21.9,00.0,31.6,24.4,10.1,0000.0,0003.76,0007.13,0003.52
2022-01-05 17:45:00,,0816.2,5.01,0.00,22.7,21.9,00.0,31.6,24.4,10.1,0000.0,0003.74,0006.98,0003.53
2022-01-05 17:46:00,,0816.2,5.00,0.00,22.7,21.9,00.0,31.6,24.4,10.1,0000.0,0003.74,0007.00,0003.54
2022-01-05 17:47:00,,0816.1,5.00,0.00,22.7,21.9,00.0,31.6,24.4,10.1,0000.0,0003.75,0007.02,0003.54
2022-01-05 17:48:00,,0816.1,5.00,0.00,22.7,21.9,00.0,31.6,24.4,10.2,0000.0,0003.75,0007.07,0003.54
2022-01-05 17:49:00,,0816.1,5.01,0.00,22.7,21.9,00.0,31.6,24.4,10.2,0000.0,0003.76,0007.14,0003.55
2022-01-05 17:50:00,,0816.1,4.98,0.00,22.7,21.9,00.0,31.6,24.4,10.1,0000.0,0003.76,0007.23,0003.55
2022-01-05 17:51:00,,0815.9,5.02,0.00,22.7,21.9,00.0,31.6,24.4,10.1,0000.0,0003.78,0006.90,0003.55
2022-01-05 17:52:00,,0816.0,5.00,0.00,22.7,21.8,00.0,31.6,24.4,10.1,0000.0,0003.81,0007.29,0003.55
2022-01-05 17:53:00,,0816.1,4.99,0.00,22.7,21.8,00.0,31.6,24.4,10.1,0000.0,0003.83,0007.50,0003.58
2022-01-05 17:54:00,,0816.0,4.99,0.00,22.7,21.8,00.0,31.6,24.4,10.2,0000.0,0003.82,0007.51,0003.58
2022-01-05 17:55:00,,0816.1,5.00,0.00,22.6,21.8,00.0,31.6,24.4,10.1,0000.0,0003.81,0007.44,0003.58
2022-01-05 17:56:00,,0816.0,5.02,0.00,22.6,21.8,00.0,31.6,24.4,10.1,0000.0,0003.84,0007.51,0003.58
2022-01-05 17:57:00,,0816.1,4.99,0.00,22.7,22.1,00.0,31.6,24.4,10.0,0000.0,0003.84,0007.47,0003.57
2022-01-05 17:58:00,,0816.0,5.01,0.00,22.7,22.8,00.0,31.6,24.6,10.1,0000.0,0003.83,0007.42,0003.58
2022-01-05 17:59:00,,0815.9,4.99,0.00,22.9,23.3,00.0,31.7,24.8,10.1,0000.0,0003.85,0007.42,0003.59
